Regional Weather Roundup
Issued by NWS

Home | Current Version | Previous Version | Text Only | Print | Product List | Glossary Off
Versions: 1 2 3 4 5 6 7 8 9 10 11 12 13 14 15 16 17 18 19 20 21 22 23 24 25 26 27 28 29 30 31 32 33 34 35 36 37 38 39 40 41 42 43 44 45 46 47 48 49 50

000
ASUS43 KMKX 292300
RWRWI

WISCONSIN REGIONAL WEATHER ROUNDUP
NATIONAL WEATHER SERVICE MILWAUKEE/SULLIVAN WI
600 PM CDT SAT AUG 29 2015

NOTE: "FAIR" INDICATES FEW OR NO CLOUDS BELOW 12,000 FEET WITH NO
SIGNIFICANT WEATHER AND/OR OBSTRUCTIONS TO VISIBILITY.

WIZ001-002-006>008-014>016-023>028-300000-
NORTHWEST WISCONSIN

CITY           SKY/WX    TMP DP  RH WIND       PRES   REMARKS
SUPERIOR ARPT  PTSUNNY   74  66  75 W3        29.98S
ASHLAND        MOSUNNY   75  66  73 S8        29.99F
HAYWARD        CLOUDY    73  63  70 S6        30.03S
SIREN          PTSUNNY   74  62  65 SW6       30.03S
CUMBERLAND     PTSUNNY   72  61  68 S5        30.04F
RICE LAKE      PTSUNNY   72  62  71 SW5       30.05S
CHETEK         PTSUNNY  N/A N/A N/A CALM      30.04S
LADYSMITH      MOSUNNY   73  62  68 S6        30.06S
EAU CLAIRE     NOT AVBL
MENOMONIE      MOSUNNY   71  63  75 CALM      30.05S
NEW RICHMOND   PTSUNNY   73  62  68 SW5       30.04S
OSCEOLA        MOSUNNY   73  59  62 S8        30.06S
$$

WIZ003>005-009-010-017-018-300000-
NORTH CENTRAL WISCONSIN

CITY           SKY/WX    TMP DP  RH WIND       PRES   REMARKS
MANITOWISH WTR SUNNY     73  61  65 W6        30.03S
ARBOR VITAE    CLOUDY    76  62  61 SW3       30.04R
WOODRUFF       CLOUDY    76  62  61 SW3       30.04R
RHINELANDER    SUNNY     73  60  63 SW5       30.05F
EAGLE RIVER    SUNNY     74  57  55 SW3       30.03S
LAND O LAKES   MOSUNNY   76  59  55 SW5       30.04R
PHILLIPS       PTSUNNY   73  61  65 SW6       30.04R
TOMAHAWK       SUNNY     72  61  69 CALM      30.05S
MEDFORD        SUNNY     68  62  78 SE3       30.06S
MERRILL        SUNNY     70  62  75 S3        30.05F
$$

WIZ029-030-035-036-043>047-300000-
CENTRAL WISCONSIN

CITY           SKY/WX    TMP DP  RH WIND       PRES   REMARKS
WAUSAU         CLOUDY    68  59  73 S3        30.04F
MOSINEE        CLOUDY    64  61  88 SE5       30.07S
MARSHFIELD     CLOUDY    67  58  72 SE3       30.06S
STEVENS POINT  CLOUDY    63  59  88 CALM      30.07S
WAUPACA        CLOUDY    69  63  81 N5        30.06S
WAUTOMA        NOT AVBL
WISC RAPIDS    NOT AVBL
CAMP DOUGLAS   NOT AVBL
$$

WIZ011>013-019>022-031-037>040-048>050-300000-
NORTHEAST WISCONSIN

CITY           SKY/WX    TMP DP  RH WIND       PRES   REMARKS
ANTIGO         SUNNY     69  59  71 S6        30.07S
SHAWANO        PTSUNNY   71  62  75 W3        30.06S
OCONTO         SUNNY     69  63  79 CALM      30.04S
STURGEON BAY   CLOUDY    64  61  88 E3        30.07S
GREEN BAY      CLOUDY    70  63  78 NE5       30.04S
MANITOWOC      MOSUNNY   66  61  82 MISG      30.05S
APPLETON       CLOUDY    70  59  68 VRB3      30.03F
CLINTONVILLE   CLOUDY    68  59  73 CALM      30.05S
OSHKOSH        CLOUDY    69  60  73 NE3       30.03F
$$

WIZ032>034-041-042-053>061-300000-
SOUTHWEST WISCONSIN

CITY           SKY/WX    TMP DP  RH WIND       PRES   REMARKS
LA CROSSE      CLOUDY    71  61  70 SE6       30.04S
SPARTA         CLOUDY    70  60  70 E3        30.05S
VIROQUA        CLOUDY    69  62  78 NE3       30.06S
BOSCOBEL       CLOUDY    72  63  73 CALM      30.03F
PRAIRIE DU CHI CLOUDY    70  61  72 E6        30.03S
PLATTEVILLE    CLOUDY    70  65  85 NE8       30.03S
$$

WIZ056-057-062-063-064-067-068-300000-
SOUTH CENTRAL WISCONSIN

CITY           SKY/WX    TMP DP  RH WIND       PRES   REMARKS
REEDSBURG      CLOUDY    68  62  81 NE3       30.04S
BARABOO/DELLS  CLOUDY    68  60  76 N3        30.05S
LONE ROCK      NOT AVBL
MINERAL POINT  CLOUDY    70  63  78 N6        30.05S
MADISON        CLOUDY    68  62  81 NE5       30.03S
MIDDLETON      CLOUDY    68  65  92 CALM      30.05S
WATERTOWN      CLOUDY    67  67 100 NE3       30.03S
MONROE         CLOUDY    68  63  83 N8        30.03S
JANESVILLE     CLOUDY    70  63  78 N6        30.01S
$$

WIZ051-052-058>065-066-070>072-300000-
SOUTHEAST WISCONSIN

CITY           SKY/WX    TMP DP  RH WIND       PRES   REMARKS
MILWAUKEE      DRZL/FOG  60  59  96 NE8       30.02S VSB 1/2
WAUKESHA       CLOUDY    63  61  94 NE6       30.05R FOG
MILWAUKEE/TIMM CLOUDY    63  61  94 NE5       30.04S FOG
RACINE         CLOUDY    62  60  93 N6        30.03S FOG
BURLINGTON     CLOUDY    64  62  96 NE6       30.02S FOG
KENOSHA        CLOUDY    64  62  93 N5        30.02S FOG
FOND DU LAC    CLOUDY    69  62  78 CALM      30.04S
SHEBOYGAN      CLOUDY    65  61  87 SE3       30.05R
WEST BEND      CLOUDY    63  59  88 CALM      30.04S
JUNEAU         CLOUDY    67  62  83 N3        30.05S
$$

LSZ147-162-300000-
LAKE SUPERIOR

STATION/POSITION TIME  TEMP    WIND        PRES    WAVE
                       AIR SEA DIR/SP/G            HT/PER
                 (UTC) (F)     (DEG/KT/KT) (MB)    (FT/S)
W MID LAKE BUOY  2150   60 55  220/  8/  8 1015.0F   1/ 4
DEVILS ISLAND    2200   65     220/  7/  8 1015.2F
PORT WING        2200   68     270/  8/  9 1015.2F
SAXON HARBOR     2240   70      CALM  /  3 1015.2F
$$

LMZ867-665-643>646-300000-
LAKE MICHIGAN

STATION/POSITION TIME  TEMP    WIND        PRES    WAVE
                       AIR SEA DIR/SP/G            HT/PER
                 (UTC) (F)     (DEG/KT/KT) (MB)    (FT/S)
CHAMBERS ISLAND  2200   69     160/  4/  8 1017.3S
S GREEN BAY BUOY 2200   64 64   60/  2/  4 1018.7S
N MID LAKE BUOY  2150   65 65  220/  8/ 10 1017.3R   0
NORTHPORT PIER   2200   67     150/  4/  6 1016.9F
SISTER BAY       2219   71     250/  4/  4   N/A
ALGOMA LAKESHORE 2244             CALM       N/A
SHEBOYGAN LAKESH 2200   60     150/  4/  4 1017.7F
PORT WASHINGTON  2200   60      40/  4/  5 1017.9S
ATWATER BUOY     2200   52 48  350/  6/  8 1018.1F
MILWAUKEE LAKESH 2200   58      20/ 10/ 10   N/A
S MID LAKE BUOY  2150   68 68  100/ 10/ 12 1016.0F   2/ 3
KENOSHA   LAKESH 2200   60     360/  7/  9 1016.3S
$$

TC  - TEMPERATURE IN CELSIUS
VSB - VISIBILITY IN STATUTE MILES
WCI - WIND CHILL INDEX
HX  - HEAT INDEX



USA.gov is the U.S. government's official web portal to all federal, state and local government web resources and services.